Погода в Степанове

Россия / Удмуртская Республика     57°01′21″N   54°21′59″E
темп.,
°C
ветер,
м/с
пор.,
м/с
влажн.,
%
обл.,
%
осадки,
мм/ч
давл.,
гПа
погр.,
м
17 мая, вт
вт1701:00+8зюз3898100 3.8 998395
04:00+8зюз2798100 8.2 998349
07:00+8ююз2598100 7.5 998245
10:00+11зюз3784100 8.1 998706
13:00+12зсз2480100 1.6 999552
16:00+13зюз237750 2.9 999504
19:00+12ю228299 1.4 99935
22:00+9юз4109487 2.0 1000394
18 мая, ср
ср1801:00+8ююз3896100 2.7 1000622
04:00+7ююз499589 4.6 1000439
07:00+8ююз488964 0.0 1000404
10:00+11ююз357274 0.4 9991249
13:00+12ююз356761 1.1 9991164
16:00+13юз346319 2.1 9991259
19:00+9зсз3687100 1.3 999388
22:00+4сз4796100 1.4 1001333
19 мая, чт
чт1901:00+4сз4896100 0.1 1002676
04:00+4зсз2696100 0.1 1003832
07:00+5зсз468765 0.1 1004687
10:00+7з4667100 0.4 10051446
13:00+8з4662100 0.3 10051388
16:00+8з4665100 0.9 10051344
19:00+7з377698 0.7 1006423
22:00+4з269280 1.0 1006192
20 мая, пт
пт2001:00+1зюз25965 0.0 1006100
04:000зюз26965 0.0 1007124
07:00+4з36835 0.0 1007369
10:00+8з466067 0.2 10071517
13:00+9з465988 1.1 10061521
16:00+9зсз566177 2.4 10061431
19:00+6сз48755 0.6 1007786
22:00+2сз3897100 0.6 1007515
21 мая, сб
сб2101:00+2сз3899100 1.2 1006423
04:00+1сз41098100 3.8 1005556
07:00+1сз3799100 1.3 1005327
10:00+2сз4899100 2.6 1004420
13:00+2зсз4999100 1.4 1004424
16:00+2сз4998100 2.9 1005504
19:00+2сз4898100 1.1 1006826
22:00+2ссз3798100 1.4 1007761